Kimball, NE

7:01 AM MDT on September 29, 2016 (GMT -0600)
Kimball Municipal-Arraj

Weather History for KIBM - December, 2012

Change the Weather History Date:

Wednesday, December 12, 2012

  Actual Average (KSNY) Record (KSNY)
Temperature  
Mean Temperature 37 °F 28 °F  
Max Temperature 57 °F 41 °F 65 °F (1990)
Min Temperature 18 °F 16 °F -10 °F (1961)
Degree Days  
Heating Degree Days 28 37  
Month to date heating degree days 425  
Since 1 July heating degree days 1847  
Cooling Degree Days 0 0  
Month to date cooling degree days 0  
Year to date cooling degree days 830  
Moisture  
Dew Point 12 °F    
Average Humidity 40    
Maximum Humidity 67    
Minimum Humidity 14    
Precipitation  
Precipitation 0.00 in 0.02 in 0.18 in (1958)
Month to date precipitation 0.24  
Year to date precipitation 18.24  
Sea Level Pressure  
Sea Level Pressure 29.76 in    
Wind  
Wind Speed 12 mph (WSW)    
Max Wind Speed 20 mph    
Max Gust Speed 24 mph    
Visibility 10 miles    
Events      
T = Trace of Precipitation, MM = Missing Value Source: NWS Daily Summary

Daily Weather History Graph

Daily Weather History Graph

Search for Another Location

Airport or City:

Trip Planner

Search our weather history database for the weather conditions in past years. The results will help you decide how hot, cold, wet, or windy it might be!

Date:

Astronomy

Dec. 12, 2012 Rise Set
Actual Time 8:11 AM CST 5:26 PM CST
Civil Twilight 7:40 AM CST 5:57 PM CST
Nautical Twilight 7:05 AM CST 6:31 PM CST
Astronomical Twilight 6:31 AM CST 7:05 PM CST
Moon 7:18 AM CST (12/12) 5:05 PM CST (12/12)
Length of Visible Light 10h 17m
Length of Day
9h 14m
Waning Crescent, 1% of the Moon is Illuminated
Dec 12
Waning Crescent
Dec 13
New
Dec 19
First Quarter
Dec 28
Full
Jan 4
Last Quarter

Hourly Weather History & Observations

Time (CST) Temp. Windchill Dew Point Humidity Pressure Visibility Wind Dir Wind Speed Gust Speed Precip Events Conditions
12:15 AM 25.7 °F 16.4 °F 10.9 °F 54% 29.75 in 10.0 mi WSW 9.2 mph - N/A   Clear
12:35 AM 23.5 °F 12.4 °F 11.1 °F 59% 29.74 in 10.0 mi SW 11.5 mph - N/A   Clear
12:55 AM 22.5 °F 13.2 °F 10.4 °F 60% 29.74 in 10.0 mi WSW 8.1 mph - N/A   Clear
1:15 AM 18.9 °F 8.8 °F 9.3 °F 66% 29.73 in 10.0 mi WSW 8.1 mph - N/A   Clear
1:35 AM 19.9 °F 7.3 °F 10.4 °F 67% 29.73 in 10.0 mi WSW 12.7 mph - N/A   Clear
1:55 AM 23.0 °F 11.1 °F 11.3 °F 61% 29.72 in 10.0 mi West 12.7 mph - N/A   Clear
2:15 AM 21.7 °F 10.2 °F 11.3 °F 64% 29.72 in 10.0 mi West 11.5 mph - N/A   Clear
2:35 AM 21.2 °F 9.5 °F 11.3 °F 66% 29.72 in 10.0 mi West 11.5 mph - N/A   Clear
2:55 AM 21.9 °F 9.8 °F 11.1 °F 63% 29.73 in 10.0 mi WSW 12.7 mph - N/A   Clear
3:15 AM 22.8 °F 10.4 °F 10.9 °F 60% 29.72 in 10.0 mi WSW 13.8 mph - N/A   Clear
3:35 AM 21.2 °F 10.1 °F 10.4 °F 63% 29.72 in 10.0 mi WSW 10.4 mph - N/A   Clear
3:55 AM 21.4 °F 9.7 °F 10.8 °F 64% 29.72 in 10.0 mi WSW 11.5 mph - N/A   Clear
4:15 AM 23.5 °F 11.8 °F 11.5 °F 60% 29.72 in 10.0 mi WSW 12.7 mph - N/A   Clear
4:35 AM 26.2 °F 14.7 °F 12.4 °F 56% 29.72 in 10.0 mi WSW 13.8 mph - N/A   Clear
4:55 AM 25.2 °F 13.9 °F 11.8 °F 57% 29.72 in 10.0 mi SW 12.7 mph - N/A   Clear
5:15 AM 26.2 °F 16.4 °F 12.2 °F 55% 29.72 in 10.0 mi SW 10.4 mph - N/A   Clear
5:35 AM 29.5 °F 22.5 °F 12.2 °F 49% 29.72 in 10.0 mi SW 6.9 mph - N/A   Scattered Clouds
5:55 AM 29.3 °F 20.2 °F 13.3 °F 51% 29.72 in 10.0 mi WSW 10.4 mph - N/A   Mostly Cloudy
6:15 AM 28.9 °F 19.8 °F 13.8 °F 53% 29.73 in 10.0 mi WSW 10.4 mph - N/A   Scattered Clouds
6:35 AM 26.8 °F 17.1 °F 13.8 °F 58% 29.72 in 10.0 mi WSW 10.4 mph - N/A   Clear
6:55 AM 26.6 °F 17.5 °F 13.8 °F 59% 29.72 in 10.0 mi WSW 9.2 mph - N/A   Clear
7:15 AM 28.9 °F 18.6 °F 14.0 °F 54% 29.72 in 10.0 mi SW 12.7 mph - N/A   Clear
7:35 AM 31.6 °F 23.1 °F 13.8 °F 48% 29.72 in 10.0 mi SW 10.4 mph 16.1 mph N/A   Clear
7:55 AM 31.6 °F 24.4 °F 13.8 °F 48% 29.74 in 10.0 mi SW 8.1 mph - N/A   Clear
8:15 AM 32.9 °F 25.9 °F 13.1 °F 44% 29.74 in 10.0 mi SW 8.1 mph - N/A   Clear
8:35 AM 33.8 °F 26.4 °F 13.1 °F 43% 29.74 in 10.0 mi SW 9.2 mph - N/A   Clear
8:55 AM 32.9 °F 28.5 °F 13.6 °F 45% 29.74 in 10.0 mi West 4.6 mph - N/A   Clear
9:15 AM 32.2 °F 26.7 °F 13.8 °F 47% 29.75 in 10.0 mi SW 5.8 mph - N/A   Clear
9:35 AM 34.9 °F 28.3 °F 13.1 °F 41% 29.75 in 10.0 mi SW 8.1 mph - N/A   Clear
9:55 AM 38.5 °F 30.7 °F 12.4 °F 34% 29.74 in 10.0 mi WSW 12.7 mph - N/A   Clear
10:15 AM 38.7 °F 29.8 °F 12.7 °F 35% 29.75 in 10.0 mi SW 16.1 mph 19.6 mph N/A   Clear
10:35 AM 41.0 °F 32.5 °F 13.3 °F 32% 29.75 in 10.0 mi SW 17.3 mph - N/A   Clear
10:55 AM 43.2 °F 36.2 °F 13.3 °F 30% 29.75 in 10.0 mi SW 13.8 mph - N/A   Clear
11:15 AM 44.2 °F 38.8 °F 14.0 °F 30% 29.75 in 10.0 mi SW 10.4 mph - N/A   Clear
11:35 AM 48.0 °F - 13.8 °F 25% 29.75 in 10.0 mi SW 11.5 mph - N/A   Clear
11:55 AM 51.1 °F - 12.7 °F 22% 29.75 in 10.0 mi WSW 17.3 mph - N/A   Clear
12:15 PM 52.5 °F - 11.8 °F 20% 29.74 in 10.0 mi SW 15.0 mph - N/A   Clear
12:35 PM 53.6 °F - 10.8 °F 18% 29.73 in 10.0 mi SW 16.1 mph 19.6 mph N/A   Clear
12:55 PM 53.8 °F - 10.6 °F 18% 29.72 in 10.0 mi SW 18.4 mph - N/A   Clear
1:15 PM 54.0 °F - 9.3 °F 17% 29.71 in 10.0 mi SW 16.1 mph - N/A   Clear
1:55 PM 55.9 °F - 6.8 °F 14% 29.70 in 10.0 mi SW 12.7 mph - N/A   Clear
2:15 PM 56.3 °F - 7.3 °F 14% 29.71 in 10.0 mi SW 16.1 mph 24.2 mph N/A   Clear
2:35 PM 55.9 °F - 7.2 °F 14% 29.71 in 10.0 mi WSW 18.4 mph 21.9 mph N/A   Clear
2:55 PM 55.2 °F - 8.1 °F 15% 29.71 in 10.0 mi SW 16.1 mph 19.6 mph N/A   Clear
3:15 PM 55.9 °F - 8.6 °F 15% 29.71 in 10.0 mi SW 17.3 mph 20.7 mph N/A   Clear
3:35 PM 55.9 °F - 8.1 °F 15% 29.72 in 10.0 mi WSW 19.6 mph - N/A   Clear
3:55 PM 55.6 °F - 7.7 °F 15% 29.72 in 10.0 mi WSW 17.3 mph - N/A   Clear
4:15 PM 54.5 °F - 8.6 °F 16% 29.74 in 10.0 mi WSW 11.5 mph - N/A   Clear
4:35 PM 53.2 °F - 9.0 °F 17% 29.74 in 10.0 mi WSW 10.4 mph - N/A   Clear
4:55 PM 49.6 °F - 9.1 °F 20% 29.75 in 10.0 mi West 9.2 mph - N/A   Clear
5:15 PM 47.5 °F - 9.5 °F 21% 29.76 in 10.0 mi West 12.7 mph - N/A   Clear
5:35 PM 47.1 °F - 11.1 °F 23% 29.77 in 10.0 mi West 15.0 mph - N/A   Clear
5:55 PM 46.6 °F - 11.7 °F 24% 29.78 in 10.0 mi West 15.0 mph - N/A   Clear
6:15 PM 43.9 °F 38.3 °F 11.7 °F 27% 29.78 in 10.0 mi West 10.4 mph - N/A   Clear
6:35 PM 40.3 °F 33.9 °F 11.8 °F 31% 29.79 in 10.0 mi WNW 10.4 mph - N/A   Clear
6:55 PM 40.5 °F 33.6 °F 12.2 °F 32% 29.79 in 10.0 mi WNW 11.5 mph - N/A   Clear
7:15 PM 40.1 °F 32.7 °F 12.0 °F 32% 29.80 in 10.0 mi West 12.7 mph - N/A   Clear
7:35 PM 34.9 °F 27.1 °F 11.1 °F 37% 29.81 in 10.0 mi West 10.4 mph - N/A   Clear
7:55 PM 32.5 °F 24.2 °F 11.3 °F 41% 29.81 in 10.0 mi West 10.4 mph - N/A   Clear
8:15 PM 36.9 °F 28.2 °F 11.7 °F 35% 29.82 in 10.0 mi WNW 13.8 mph - N/A   Clear
8:35 PM 37.6 °F 29.1 °F 12.4 °F 36% 29.83 in 10.0 mi West 13.8 mph - N/A   Clear
8:55 PM 35.1 °F 25.9 °F 12.0 °F 39% 29.83 in 10.0 mi West 13.8 mph - N/A   Clear
9:15 PM 34.9 °F 24.9 °F 12.9 °F 40% 29.83 in 10.0 mi West 16.1 mph - N/A   Clear
9:35 PM 39.0 °F 31.4 °F 13.1 °F 35% 29.83 in 10.0 mi West 12.7 mph - N/A   Clear
9:55 PM 39.4 °F 31.4 °F 13.6 °F 35% 29.84 in 10.0 mi WNW 13.8 mph - N/A   Clear
10:15 PM 39.4 °F 32.7 °F 13.3 °F 34% 29.84 in 10.0 mi NW 10.4 mph - N/A   Clear
10:35 PM 32.0 °F 24.2 °F 12.6 °F 45% 29.85 in 10.0 mi WNW 9.2 mph - N/A   Clear
10:55 PM 28.0 °F 20.0 °F 12.2 °F 52% 29.85 in 10.0 mi WNW 8.1 mph - N/A   Clear
11:15 PM 30.2 °F 20.8 °F 13.1 °F 49% 29.87 in 10.0 mi West 11.5 mph - N/A   Clear
11:35 PM 31.6 °F 22.6 °F 13.1 °F 46% 29.87 in 10.0 mi WNW 11.5 mph - N/A   Clear
11:55 PM 31.6 °F 24.4 °F 13.5 °F 47% 29.87 in 10.0 mi WNW 8.1 mph - N/A   Clear